Time,TemperatureF,DewpointF,PressureIn,WindDirection,WindDirectionDegrees,WindSpeedMPH,WindSpeedGustMPH,Humidity,HourlyPrecipIn,Conditions,Clouds,dailyrainin,SoftwareType,DateUTC
2013-09-26 00:01:00,55.9,52.7,29.93,NE,55,0.0,0.0,89,0.00,,,0.00,Wunderground v.1.15,2013-09-26 04:01:00,
2013-09-26 00:02:00,55.9,52.7,29.93,NE,55,0.0,0.0,89,0.00,,,0.00,Wunderground v.1.15,2013-09-26 04:02:00,
2013-09-26 00:03:00,55.9,52.7,29.93,NE,55,0.0,0.0,89,0.00,,,0.00,Wunderground v.1.15,2013-09-26 04:03:00,
2013-09-26 00:06:00,55.8,52.6,29.93,NE,55,0.0,0.0,89,0.00,,,0.00,Wunderground v.1.15,2013-09-26 04:06:00,
2013-09-26 00:11:00,55.8,52.6,29.93,NE,55,0.0,0.0,89,0.00,,,0.00,Wunderground v.1.15,2013-09-26 04:11:00,
2013-09-26 00:14:00,55.7,52.5,29.93,NE,55,0.0,0.0,89,0.00,,,0.00,Wunderground v.1.15,2013-09-26 04:14:00,
2013-09-26 00:19:00,55.7,52.8,29.93,NE,55,0.0,0.0,90,0.00,,,0.00,Wunderground v.1.15,2013-09-26 04:19:00,
2013-09-26 00:24:00,55.6,52.7,29.93,NE,55,0.0,0.0,90,0.00,,,0.00,Wunderground v.1.15,2013-09-26 04:24:00,
2013-09-26 00:29:00,55.5,52.6,29.93,NE,55,0.0,0.0,90,0.00,,,0.00,Wunderground v.1.15,2013-09-26 04:29:00,
2013-09-26 00:35:00,55.4,52.5,29.93,NE,55,0.0,0.0,90,0.00,,,0.00,Wunderground v.1.15,2013-09-26 04:35:00,
2013-09-26 00:41:00,55.4,52.8,29.93,NE,55,0.0,0.0,91,0.00,,,0.00,Wunderground v.1.15,2013-09-26 04:41:00,
2013-09-26 00:47:00,55.4,52.8,29.93,NE,55,0.0,0.0,91,0.00,,,0.00,Wunderground v.1.15,2013-09-26 04:47:00,
2013-09-26 00:52:00,55.3,52.7,29.92,NE,55,0.0,0.0,91,0.00,,,0.00,Wunderground v.1.15,2013-09-26 04:52:00,
2013-09-26 00:57:00,55.3,52.7,29.92,NE,55,0.0,0.0,91,0.00,,,0.00,Wunderground v.1.15,2013-09-26 04:57:00,
2013-09-26 01:02:00,55.2,52.6,29.92,NE,55,0.0,0.0,91,0.00,,,0.00,Wunderground v.1.15,2013-09-26 05:02:00,
2013-09-26 01:08:00,55.1,52.5,29.92,NE,55,0.0,0.0,91,0.00,,,0.00,Wunderground v.1.15,2013-09-26 05:08:00,
2013-09-26 01:14:00,55.0,52.4,29.92,NE,55,0.0,0.0,91,0.00,,,0.00,Wunderground v.1.15,2013-09-26 05:14:00,
2013-09-26 01:19:00,54.8,52.2,29.92,NE,55,0.0,0.0,91,0.00,,,0.00,Wunderground v.1.15,2013-09-26 05:19:00,
2013-09-26 01:25:00,54.7,52.1,29.92,NE,55,0.0,0.0,91,0.00,,,0.00,Wunderground v.1.15,2013-09-26 05:25:00,
2013-09-26 01:30:00,54.6,52.0,29.93,NE,55,0.0,0.0,91,0.00,,,0.00,Wunderground v.1.15,2013-09-26 05:30:00,
2013-09-26 01:36:00,54.4,51.8,29.93,NE,55,0.0,0.0,91,0.00,,,0.00,Wunderground v.1.15,2013-09-26 05:36:00,
2013-09-26 01:41:00,54.4,51.8,29.93,NE,55,0.0,0.0,91,0.00,,,0.00,Wunderground v.1.15,2013-09-26 05:41:00,
2013-09-26 01:47:00,54.3,51.7,29.93,NE,55,0.0,0.0,91,0.00,,,0.00,Wunderground v.1.15,2013-09-26 05:47:00,
2013-09-26 01:53:00,54.2,51.9,29.93,NE,55,0.0,0.0,92,0.00,,,0.00,Wunderground v.1.15,2013-09-26 05:53:00,
2013-09-26 01:58:00,54.0,51.4,29.93,NE,55,0.0,0.0,91,0.00,,,0.00,Wunderground v.1.15,2013-09-26 05:58:00,
2013-09-26 02:03:00,53.9,51.6,29.93,NE,55,0.0,0.0,92,0.00,,,0.00,Wunderground v.1.15,2013-09-26 06:03:00,
2013-09-26 02:08:00,53.8,51.5,29.93,NE,55,0.0,0.0,92,0.00,,,0.00,Wunderground v.1.15,2013-09-26 06:08:00,
2013-09-26 02:13:00,53.8,51.5,29.93,NE,55,0.0,0.0,92,0.00,,,0.00,Wunderground v.1.15,2013-09-26 06:13:00,
2013-09-26 02:18:00,53.6,51.3,29.93,NE,55,0.0,0.0,92,0.00,,,0.00,Wunderground v.1.15,2013-09-26 06:18:00,
2013-09-26 02:23:00,53.5,51.2,29.93,NE,55,0.0,0.0,92,0.00,,,0.00,Wunderground v.1.15,2013-09-26 06:23:00,
2013-09-26 02:28:00,53.4,51.4,29.93,NE,55,0.0,0.0,93,0.00,,,0.00,Wunderground v.1.15,2013-09-26 06:28:00,
2013-09-26 02:34:00,53.3,51.3,29.93,NE,55,0.0,0.0,93,0.00,,,0.00,Wunderground v.1.15,2013-09-26 06:34:00,
2013-09-26 02:39:00,53.2,51.2,29.94,NE,55,0.0,0.0,93,0.00,,,0.00,Wunderground v.1.15,2013-09-26 06:39:00,
2013-09-26 02:44:00,53.3,51.3,29.94,NE,55,0.0,0.0,93,0.00,,,0.00,Wunderground v.1.15,2013-09-26 06:44:00,
2013-09-26 02:49:00,53.2,51.2,29.94,NE,55,0.0,0.0,93,0.00,,,0.00,Wunderground v.1.15,2013-09-26 06:49:00,
2013-09-26 02:54:00,53.1,51.1,29.94,NE,55,0.0,0.0,93,0.00,,,0.00,Wunderground v.1.15,2013-09-26 06:54:00,
2013-09-26 02:59:00,53.0,51.0,29.94,NE,55,0.0,0.0,93,0.00,,,0.00,Wunderground v.1.15,2013-09-26 06:59:00,
2013-09-26 03:05:00,52.9,51.2,29.94,NE,55,0.0,0.0,94,0.00,,,0.00,Wunderground v.1.15,2013-09-26 07:05:00,
2013-09-26 03:10:00,52.8,51.1,29.94,NE,55,0.0,0.0,94,0.00,,,0.00,Wunderground v.1.15,2013-09-26 07:10:00,
2013-09-26 03:15:00,52.7,51.0,29.94,NE,55,0.0,0.0,94,0.00,,,0.00,Wunderground v.1.15,2013-09-26 07:15:00,
2013-09-26 03:20:00,52.8,51.1,29.94,NE,55,0.0,0.0,94,0.00,,,0.00,Wunderground v.1.15,2013-09-26 07:20:00,
2013-09-26 03:25:00,52.8,51.1,29.94,NE,55,0.0,0.0,94,0.00,,,0.00,Wunderground v.1.15,2013-09-26 07:25:00,
2013-09-26 03:30:00,52.6,50.9,29.94,NE,55,0.0,0.0,94,0.00,,,0.00,Wunderground v.1.15,2013-09-26 07:30:00,
2013-09-26 03:35:00,52.3,50.6,29.94,NE,55,0.0,0.0,94,0.00,,,0.00,Wunderground v.1.15,2013-09-26 07:35:00,
2013-09-26 03:40:00,52.2,50.5,29.94,NE,55,0.0,0.0,94,0.00,,,0.00,Wunderground v.1.15,2013-09-26 07:40:00,
2013-09-26 03:45:00,52.0,50.3,29.94,NE,55,0.0,0.0,94,0.00,,,0.00,Wunderground v.1.15,2013-09-26 07:45:00,
2013-09-26 03:50:00,52.0,50.3,29.94,NE,55,0.0,0.0,94,0.00,,,0.00,Wunderground v.1.15,2013-09-26 07:50:00,
2013-09-26 03:56:00,51.9,50.2,29.94,NE,55,0.0,0.0,94,0.00,,,0.00,Wunderground v.1.15,2013-09-26 07:56:00,
2013-09-26 04:01:00,51.8,50.1,29.95,NE,55,0.0,0.0,94,0.00,,,0.00,Wunderground v.1.15,2013-09-26 08:01:00,
2013-09-26 04:06:00,51.7,50.0,29.95,NE,55,0.0,0.0,94,0.00,,,0.00,Wunderground v.1.15,2013-09-26 08:06:00,
2013-09-26 04:11:00,51.5,49.8,29.95,NE,55,0.0,0.0,94,0.00,,,0.00,Wunderground v.1.15,2013-09-26 08:11:00,
2013-09-26 04:16:00,51.3,49.6,29.95,NE,55,0.0,0.0,94,0.00,,,0.00,Wunderground v.1.15,2013-09-26 08:16:00,
2013-09-26 04:21:00,51.2,49.5,29.95,NE,55,0.0,0.0,94,0.00,,,0.00,Wunderground v.1.15,2013-09-26 08:21:00,
2013-09-26 04:27:00,51.1,49.4,29.95,NE,55,0.0,0.0,94,0.00,,,0.00,Wunderground v.1.15,2013-09-26 08:27:00,
2013-09-26 04:32:00,51.0,49.3,29.95,NE,55,0.0,0.0,94,0.00,,,0.00,Wunderground v.1.15,2013-09-26 08:32:00,
2013-09-26 04:37:00,51.0,49.6,29.95,NE,55,0.0,0.0,95,0.00,,,0.00,Wunderground v.1.15,2013-09-26 08:37:00,
2013-09-26 04:42:00,50.8,49.4,29.94,NE,55,0.0,0.0,95,0.00,,,0.00,Wunderground v.1.15,2013-09-26 08:42:00,
2013-09-26 04:47:00,50.7,49.3,29.94,NE,55,0.0,0.0,95,0.00,,,0.00,Wunderground v.1.15,2013-09-26 08:47:00,
2013-09-26 04:52:00,50.7,49.3,29.94,NE,55,0.0,0.0,95,0.00,,,0.00,Wunderground v.1.15,2013-09-26 08:52:00,
2013-09-26 04:57:00,50.7,49.3,29.95,NE,55,0.0,0.0,95,0.00,,,0.00,Wunderground v.1.15,2013-09-26 08:57:00,
2013-09-26 05:02:00,50.7,49.3,29.95,NE,55,0.0,0.0,95,0.00,,,0.00,Wunderground v.1.15,2013-09-26 09:02:00,
2013-09-26 05:07:00,50.7,49.3,29.95,NE,55,0.0,0.0,95,0.00,,,0.00,Wunderground v.1.15,2013-09-26 09:07:00,
2013-09-26 05:13:00,50.6,49.2,29.95,NE,55,0.0,0.0,95,0.00,,,0.00,Wunderground v.1.15,2013-09-26 09:13:00,
2013-09-26 05:18:00,50.7,49.3,29.95,NE,55,0.0,0.0,95,0.00,,,0.00,Wunderground v.1.15,2013-09-26 09:18:00,
2013-09-26 05:23:00,50.8,49.4,29.95,NE,55,0.0,0.0,95,0.00,,,0.00,Wunderground v.1.15,2013-09-26 09:23:00,
2013-09-26 05:28:00,50.9,49.8,29.95,NE,55,0.0,0.0,96,0.00,,,0.00,Wunderground v.1.15,2013-09-26 09:28:00,
2013-09-26 05:33:00,50.9,49.8,29.96,NE,55,0.0,0.0,96,0.00,,,0.00,Wunderground v.1.15,2013-09-26 09:33:00,
2013-09-26 05:39:00,50.9,49.8,29.96,NE,55,0.0,0.0,96,0.00,,,0.00,Wunderground v.1.15,2013-09-26 09:39:00,
2013-09-26 05:44:00,50.9,49.8,29.96,NE,55,0.0,0.0,96,0.00,,,0.00,Wunderground v.1.15,2013-09-26 09:44:00,
2013-09-26 05:49:00,50.9,49.8,29.95,NE,55,0.0,0.0,96,0.00,,,0.00,Wunderground v.1.15,2013-09-26 09:49:00,
2013-09-26 05:54:00,51.0,49.9,29.95,NE,55,0.0,0.0,96,0.00,,,0.00,Wunderground v.1.15,2013-09-26 09:54:00,
2013-09-26 05:59:00,51.0,49.9,29.95,NE,55,0.0,0.0,96,0.00,,,0.00,Wunderground v.1.15,2013-09-26 09:59:00,
2013-09-26 06:04:00,51.0,49.9,29.95,NE,55,0.0,0.0,96,0.00,,,0.00,Wunderground v.1.15,2013-09-26 10:04:00,
2013-09-26 06:10:00,50.9,49.8,29.96,NE,55,0.0,0.0,96,0.00,,,0.00,Wunderground v.1.15,2013-09-26 10:10:00,
2013-09-26 06:15:00,50.9,49.8,29.96,NE,55,0.0,0.0,96,0.00,,,0.00,Wunderground v.1.15,2013-09-26 10:15:00,
2013-09-26 06:20:00,50.8,49.7,29.96,NE,55,0.0,0.0,96,0.00,,,0.00,Wunderground v.1.15,2013-09-26 10:20:00,
2013-09-26 06:25:00,50.7,49.6,29.97,NE,55,0.0,0.0,96,0.00,,,0.00,Wunderground v.1.15,2013-09-26 10:25:00,
2013-09-26 06:30:00,50.6,49.5,29.97,NE,55,0.0,0.0,96,0.00,,,0.00,Wunderground v.1.15,2013-09-26 10:30:00,
2013-09-26 06:35:00,50.6,49.5,29.97,NE,55,0.0,0.0,96,0.00,,,0.00,Wunderground v.1.15,2013-09-26 10:35:00,
2013-09-26 06:41:00,50.7,49.6,29.97,NE,55,0.0,0.0,96,0.00,,,0.00,Wunderground v.1.15,2013-09-26 10:41:00,
2013-09-26 06:46:00,50.8,49.7,29.97,NE,55,0.0,0.0,96,0.00,,,0.00,Wunderground v.1.15,2013-09-26 10:46:00,
2013-09-26 06:51:00,50.8,49.7,29.98,NE,55,0.0,0.0,96,0.00,,,0.00,Wunderground v.1.15,2013-09-26 10:51:00,
2013-09-26 06:56:00,50.7,49.6,29.98,NE,55,0.0,0.0,96,0.00,,,0.00,Wunderground v.1.15,2013-09-26 10:56:00,
2013-09-26 07:01:00,50.5,49.4,29.98,NE,55,0.0,0.0,96,0.00,,,0.00,Wunderground v.1.15,2013-09-26 11:01:00,
2013-09-26 07:06:00,50.3,49.2,29.99,NE,55,0.0,0.0,96,0.00,,,0.00,Wunderground v.1.15,2013-09-26 11:06:00,
2013-09-26 07:11:00,50.1,49.0,29.99,NE,55,0.0,0.0,96,0.00,,,0.00,Wunderground v.1.15,2013-09-26 11:11:00,
2013-09-26 07:16:00,50.0,48.9,29.99,NE,55,0.0,0.0,96,0.00,,,0.00,Wunderground v.1.15,2013-09-26 11:16:00,
2013-09-26 07:22:00,49.7,48.6,29.99,NE,55,0.0,0.0,96,0.00,,,0.00,Wunderground v.1.15,2013-09-26 11:22:00,
2013-09-26 07:27:00,49.6,48.5,30.00,NE,55,0.0,0.0,96,0.00,,,0.00,Wunderground v.1.15,2013-09-26 11:27:00,
2013-09-26 07:33:00,49.4,48.3,30.00,NE,55,0.0,0.0,96,0.00,,,0.00,Wunderground v.1.15,2013-09-26 11:33:00,
2013-09-26 07:38:00,49.3,48.2,30.00,NE,55,0.0,0.0,96,0.00,,,0.00,Wunderground v.1.15,2013-09-26 11:38:00,
2013-09-26 07:43:00,49.2,48.1,30.00,NE,55,0.0,0.0,96,0.00,,,0.00,Wunderground v.1.15,2013-09-26 11:43:00,
2013-09-26 07:47:00,49.2,48.1,30.00,NE,55,0.0,0.0,96,0.00,,,0.00,Wunderground v.1.15,2013-09-26 11:47:00,
2013-09-26 07:53:00,49.2,48.1,30.00,NE,55,0.0,0.0,96,0.00,,,0.00,Wunderground v.1.15,2013-09-26 11:53:00,
2013-09-26 07:58:00,49.2,48.1,30.00,NE,55,0.0,0.0,96,0.00,,,0.00,Wunderground v.1.15,2013-09-26 11:58:00,
2013-09-26 08:03:00,49.2,48.1,30.00,NE,55,0.0,0.0,96,0.00,,,0.00,Wunderground v.1.15,2013-09-26 12:03:00,
2013-09-26 08:08:00,49.4,48.3,30.01,NE,55,0.0,0.0,96,0.00,,,0.00,Wunderground v.1.15,2013-09-26 12:08:00,
2013-09-26 08:13:00,49.9,48.8,30.01,NE,55,0.0,0.0,96,0.00,,,0.00,Wunderground v.1.15,2013-09-26 12:13:00,
2013-09-26 08:18:00,50.4,49.3,30.01,NE,55,0.0,0.0,96,0.00,,,0.00,Wunderground v.1.15,2013-09-26 12:18:00,
2013-09-26 08:23:00,50.9,50.1,30.01,NE,55,0.0,0.0,97,0.00,,,0.00,Wunderground v.1.15,2013-09-26 12:23:00,
2013-09-26 08:28:00,51.2,50.4,30.01,NE,55,0.0,0.0,97,0.00,,,0.00,Wunderground v.1.15,2013-09-26 12:28:00,
2013-09-26 08:34:00,51.4,50.6,30.01,NE,55,0.0,0.0,97,0.00,,,0.00,Wunderground v.1.15,2013-09-26 12:34:00,
2013-09-26 08:39:00,51.8,51.0,30.01,NE,55,2.0,4.0,97,0.00,,,0.00,Wunderground v.1.15,2013-09-26 12:39:00,
2013-09-26 08:44:00,52.1,51.3,30.02,NE,44,0.0,5.0,97,0.00,,,0.00,Wunderground v.1.15,2013-09-26 12:44:00,
2013-09-26 08:49:00,52.3,51.5,30.02,NE,47,2.0,5.0,97,0.00,,,0.00,Wunderground v.1.15,2013-09-26 12:49:00,
2013-09-26 08:54:00,52.4,51.6,30.02,NE,47,0.0,4.0,97,0.00,,,0.00,Wunderground v.1.15,2013-09-26 12:54:00,
2013-09-26 08:59:00,52.6,51.8,30.02,NE,47,2.0,4.0,97,0.00,,,0.00,Wunderground v.1.15,2013-09-26 12:59:00,
2013-09-26 09:04:00,52.9,52.1,30.02,NE,47,0.0,3.0,97,0.00,,,0.00,Wunderground v.1.15,2013-09-26 13:04:00,
2013-09-26 09:09:00,53.3,52.5,30.02,NE,47,2.0,3.0,97,0.00,,,0.00,Wunderground v.1.15,2013-09-26 13:09:00,
2013-09-26 09:14:00,53.6,52.8,30.03,NE,47,3.0,3.0,97,0.00,,,0.00,Wunderground v.1.15,2013-09-26 13:14:00,
2013-09-26 09:19:00,53.9,53.1,30.03,NE,50,0.0,5.0,97,0.00,,,0.00,Wunderground v.1.15,2013-09-26 13:19:00,
2013-09-26 09:24:00,54.2,53.1,30.03,ENE,62,1.0,6.0,96,0.00,,,0.00,Wunderground v.1.15,2013-09-26 13:24:00,
2013-09-26 09:29:00,54.5,53.4,30.03,ENE,59,4.0,6.0,96,0.00,,,0.00,Wunderground v.1.15,2013-09-26 13:29:00,
2013-09-26 09:34:00,54.9,53.5,30.03,NE,49,1.0,4.0,95,0.00,,,0.00,Wunderground v.1.15,2013-09-26 13:34:00,
2013-09-26 09:39:00,55.2,53.8,30.03,NE,56,4.0,5.0,95,0.00,,,0.00,Wunderground v.1.15,2013-09-26 13:39:00,
2013-09-26 09:44:00,55.5,53.8,30.04,NE,53,1.0,5.0,94,0.00,,,0.00,Wunderground v.1.15,2013-09-26 13:44:00,
2013-09-26 09:50:00,55.9,53.9,30.04,NE,50,0.0,1.0,93,0.00,,,0.00,Wunderground v.1.15,2013-09-26 13:50:00,
2013-09-26 09:55:00,56.2,54.2,30.04,NE,50,3.0,3.0,93,0.00,,,0.00,Wunderground v.1.15,2013-09-26 13:55:00,
2013-09-26 10:00:00,56.4,54.1,30.04,NE,50,0.0,1.0,92,0.00,,,0.00,Wunderground v.1.15,2013-09-26 14:00:00,
2013-09-26 10:05:00,56.6,54.3,30.04,NE,50,0.0,2.0,92,0.00,,,0.00,Wunderground v.1.15,2013-09-26 14:05:00,
2013-09-26 10:10:00,56.9,54.3,30.04,NE,50,0.0,1.0,91,0.00,,,0.00,Wunderground v.1.15,2013-09-26 14:10:00,
2013-09-26 10:15:00,57.1,54.5,30.04,NE,50,0.0,2.0,91,0.00,,,0.00,Wunderground v.1.15,2013-09-26 14:15:00,
2013-09-26 10:20:00,57.5,54.9,30.04,NE,50,0.0,1.0,91,0.00,,,0.00,Wunderground v.1.15,2013-09-26 14:20:00,
2013-09-26 10:25:00,57.9,55.0,30.05,NE,50,1.0,3.0,90,0.00,,,0.00,Wunderground v.1.15,2013-09-26 14:25:00,
2013-09-26 10:30:00,58.2,55.3,30.04,NE,50,0.0,1.0,90,0.00,,,0.00,Wunderground v.1.15,2013-09-26 14:30:00,
2013-09-26 10:35:00,58.7,55.8,30.04,NE,50,0.0,3.0,90,0.00,,,0.00,Wunderground v.1.15,2013-09-26 14:35:00,
2013-09-26 10:40:00,59.2,56.0,30.04,NE,50,0.0,1.0,89,0.00,,,0.00,Wunderground v.1.15,2013-09-26 14:40:00,
2013-09-26 10:45:00,59.7,56.5,30.04,NE,50,2.0,2.0,89,0.00,,,0.00,Wunderground v.1.15,2013-09-26 14:45:00,
2013-09-26 10:51:00,60.3,56.7,30.04,NE,50,3.0,4.0,88,0.00,,,0.00,Wunderground v.1.15,2013-09-26 14:51:00,
2013-09-26 10:56:00,60.7,56.8,30.04,NE,50,1.0,4.0,87,0.00,,,0.00,Wunderground v.1.15,2013-09-26 14:56:00,
2013-09-26 11:01:00,61.2,57.0,30.04,NE,50,0.0,1.0,86,0.00,,,0.00,Wunderground v.1.15,2013-09-26 15:01:00,
2013-09-26 11:06:00,61.6,57.0,30.04,NE,50,0.0,2.0,85,0.00,,,0.00,Wunderground v.1.15,2013-09-26 15:06:00,
2013-09-26 11:11:00,62.0,57.4,30.05,NE,50,0.0,2.0,85,0.00,,,0.00,Wunderground v.1.15,2013-09-26 15:11:00,
2013-09-26 11:16:00,62.4,57.2,30.05,NE,50,0.0,2.0,83,0.00,,,0.00,Wunderground v.1.15,2013-09-26 15:16:00,
2013-09-26 11:21:00,63.0,58.1,30.05,NE,50,0.0,1.0,84,0.00,,,0.00,Wunderground v.1.15,2013-09-26 15:21:00,
2013-09-26 11:26:00,63.4,57.5,30.05,NE,50,0.0,2.0,81,0.00,,,0.00,Wunderground v.1.15,2013-09-26 15:26:00,
2013-09-26 11:31:00,64.0,58.4,30.05,NE,50,0.0,0.0,82,0.00,,,0.00,Wunderground v.1.15,2013-09-26 15:31:00,
2013-09-26 11:37:00,64.5,58.5,30.05,NE,50,0.0,3.0,81,0.00,,,0.00,Wunderground v.1.15,2013-09-26 15:37:00,
2013-09-26 11:42:00,64.6,58.3,30.05,North,351,2.0,5.0,80,0.00,,,0.00,Wunderground v.1.15,2013-09-26 15:42:00,
2013-09-26 11:47:00,65.1,58.4,30.05,NNE,25,0.0,5.0,79,0.00,,,0.00,Wunderground v.1.15,2013-09-26 15:47:00,
2013-09-26 11:52:00,65.5,59.2,30.05,NNE,25,0.0,1.0,80,0.00,,,0.00,Wunderground v.1.15,2013-09-26 15:52:00,
2013-09-26 11:57:00,66.0,58.6,30.05,NE,42,0.0,5.0,77,0.00,,,0.00,Wunderground v.1.15,2013-09-26 15:57:00,
2013-09-26 12:02:00,66.5,59.1,30.05,NE,42,2.0,3.0,77,0.00,,,0.00,Wunderground v.1.15,2013-09-26 16:02:00,
2013-09-26 12:07:00,66.7,59.3,30.05,NE,42,0.0,3.0,77,0.00,,,0.00,Wunderground v.1.15,2013-09-26 16:07:00,
2013-09-26 12:12:00,66.9,59.1,30.05,NE,42,2.0,4.0,76,0.00,,,0.00,Wunderground v.1.15,2013-09-26 16:12:00,
2013-09-26 12:17:00,67.0,58.8,30.05,NE,38,0.0,4.0,75,0.00,,,0.00,Wunderground v.1.15,2013-09-26 16:17:00,
2013-09-26 12:22:00,67.3,58.3,30.05,ENE,57,0.0,2.0,73,0.00,,,0.00,Wunderground v.1.15,2013-09-26 16:22:00,
2013-09-26 12:27:00,67.7,59.1,30.05,NW,320,0.0,3.0,74,0.00,,,0.00,Wunderground v.1.15,2013-09-26 16:27:00,
2013-09-26 12:32:00,68.0,57.8,30.05,NNE,22,0.0,3.0,70,0.00,,,0.00,Wunderground v.1.15,2013-09-26 16:32:00,
2013-09-26 12:37:00,68.3,58.9,30.04,NNE,22,0.0,3.0,72,0.00,,,0.00,Wunderground v.1.15,2013-09-26 16:37:00,
2013-09-26 12:42:00,68.4,58.2,30.04,NE,41,4.0,6.0,70,0.00,,,0.00,Wunderground v.1.15,2013-09-26 16:42:00,
2013-09-26 12:47:00,68.6,58.4,30.04,NE,45,0.0,8.0,70,0.00,,,0.00,Wunderground v.1.15,2013-09-26 16:47:00,
2013-09-26 12:52:00,68.8,59.0,30.04,ENE,59,2.0,4.0,71,0.00,,,0.00,Wunderground v.1.15,2013-09-26 16:52:00,
2013-09-26 12:57:00,68.9,57.9,30.04,NE,42,3.0,9.0,68,0.00,,,0.00,Wunderground v.1.15,2013-09-26 16:57:00,
2013-09-26 13:02:00,69.0,57.2,30.04,NE,48,2.0,2.0,66,0.00,,,0.00,Wunderground v.1.15,2013-09-26 17:02:00,
2013-09-26 13:08:00,69.2,58.2,30.04,NE,48,0.0,3.0,68,0.00,,,0.00,Wunderground v.1.15,2013-09-26 17:08:00,
2013-09-26 13:13:00,69.5,55.9,30.04,East,95,0.0,3.0,62,0.00,,,0.00,Wunderground v.1.15,2013-09-26 17:13:00,
2013-09-26 13:19:00,69.9,56.3,30.04,East,95,0.0,3.0,62,0.00,,,0.00,Wunderground v.1.15,2013-09-26 17:19:00,
2013-09-26 13:24:00,70.2,57.4,30.04,East,95,1.0,2.0,64,0.00,,,0.00,Wunderground v.1.15,2013-09-26 17:24:00,
2013-09-26 13:29:00,70.4,57.2,30.04,East,94,2.0,3.0,63,0.00,,,0.00,Wunderground v.1.15,2013-09-26 17:29:00,
2013-09-26 13:34:00,70.6,57.4,30.04,NE,54,3.0,4.0,63,0.00,,,0.00,Wunderground v.1.15,2013-09-26 17:34:00,
2013-09-26 13:39:00,70.8,58.0,30.04,ENE,73,0.0,4.0,64,0.00,,,0.00,Wunderground v.1.15,2013-09-26 17:39:00,
2013-09-26 13:44:00,71.0,57.3,30.03,ENE,73,0.0,3.0,62,0.00,,,0.00,Wunderground v.1.15,2013-09-26 17:44:00,
2013-09-26 13:49:00,71.0,57.8,30.03,ENE,73,0.0,3.0,63,0.00,,,0.00,Wunderground v.1.15,2013-09-26 17:49:00,
2013-09-26 13:54:00,71.2,58.4,30.03,NE,44,5.0,5.0,64,0.00,,,0.00,Wunderground v.1.15,2013-09-26 17:54:00,
2013-09-26 13:59:00,71.2,57.5,30.03,NE,52,0.0,7.0,62,0.00,,,0.00,Wunderground v.1.15,2013-09-26 17:59:00,
2013-09-26 14:04:00,71.5,58.2,30.03,NE,52,0.0,1.0,63,0.00,,,0.00,Wunderground v.1.15,2013-09-26 18:04:00,
2013-09-26 14:09:00,71.7,58.4,30.03,NE,52,2.0,2.0,63,0.00,,,0.00,Wunderground v.1.15,2013-09-26 18:09:00,
2013-09-26 14:15:00,71.9,58.6,30.03,NE,49,0.0,6.0,63,0.00,,,0.00,Wunderground v.1.15,2013-09-26 18:15:00,
2013-09-26 14:20:00,72.1,57.9,30.03,East,92,0.0,1.0,61,0.00,,,0.00,Wunderground v.1.15,2013-09-26 18:20:00,
2013-09-26 14:25:00,72.2,58.9,30.03,NE,35,1.0,8.0,63,0.00,,,0.00,Wunderground v.1.15,2013-09-26 18:25:00,
2013-09-26 14:30:00,72.4,58.6,30.02,NE,42,0.0,2.0,62,0.00,,,0.00,Wunderground v.1.15,2013-09-26 18:30:00,
2013-09-26 14:35:00,72.4,58.6,30.02,NE,43,0.0,5.0,62,0.00,,,0.00,Wunderground v.1.15,2013-09-26 18:35:00,
2013-09-26 14:40:00,72.5,59.6,30.02,NE,54,2.0,2.0,64,0.00,,,0.00,Wunderground v.1.15,2013-09-26 18:40:00,
2013-09-26 14:45:00,72.9,60.0,30.02,NE,53,0.0,3.0,64,0.00,,,0.00,Wunderground v.1.15,2013-09-26 18:45:00,
2013-09-26 14:50:00,73.0,59.2,30.02,NE,38,0.0,1.0,62,0.00,,,0.00,Wunderground v.1.15,2013-09-26 18:50:00,
2013-09-26 14:55:00,73.1,59.8,30.02,NE,39,0.0,4.0,63,0.00,,,0.00,Wunderground v.1.15,2013-09-26 18:55:00,
2013-09-26 15:00:00,73.0,59.2,30.02,NE,39,0.0,0.0,62,0.00,,,0.00,Wunderground v.1.15,2013-09-26 19:00:00,
2013-09-26 15:05:00,73.1,60.6,30.02,NE,38,0.0,3.0,65,0.00,,,0.00,Wunderground v.1.15,2013-09-26 19:05:00,
2013-09-26 15:10:00,73.2,60.3,30.02,NE,38,0.0,0.0,64,0.00,,,0.00,Wunderground v.1.15,2013-09-26 19:10:00,
2013-09-26 15:15:00,73.2,59.8,30.02,NE,38,0.0,1.0,63,0.00,,,0.00,Wunderground v.1.15,2013-09-26 19:15:00,
2013-09-26 15:20:00,73.3,59.9,30.01,NE,38,0.0,1.0,63,0.00,,,0.00,Wunderground v.1.15,2013-09-26 19:20:00,
2013-09-26 15:25:00,73.3,59.9,30.02,NE,38,1.0,2.0,63,0.00,,,0.00,Wunderground v.1.15,2013-09-26 19:25:00,
2013-09-26 15:30:00,73.4,59.6,30.01,NE,42,3.0,4.0,62,0.00,,,0.00,Wunderground v.1.15,2013-09-26 19:30:00,
2013-09-26 15:35:00,73.5,61.0,30.02,ENE,57,0.0,6.0,65,0.00,,,0.00,Wunderground v.1.15,2013-09-26 19:35:00,
2013-09-26 15:40:00,73.5,60.6,30.02,ENE,57,0.0,2.0,64,0.00,,,0.00,Wunderground v.1.15,2013-09-26 19:40:00,
2013-09-26 15:45:00,73.6,61.1,30.02,ENE,57,0.0,3.0,65,0.00,,,0.00,Wunderground v.1.15,2013-09-26 19:45:00,
2013-09-26 15:51:00,73.7,60.8,30.02,ENE,57,1.0,4.0,64,0.00,,,0.00,Wunderground v.1.15,2013-09-26 19:51:00,
2013-09-26 15:56:00,73.8,60.9,30.02,NE,46,0.0,4.0,64,0.00,,,0.00,Wunderground v.1.15,2013-09-26 19:56:00,
2013-09-26 16:01:00,73.8,60.4,30.02,NE,46,0.0,1.0,63,0.00,,,0.00,Wunderground v.1.15,2013-09-26 20:01:00,
2013-09-26 16:06:00,73.9,60.1,30.02,NE,46,0.0,2.0,62,0.00,,,0.00,Wunderground v.1.15,2013-09-26 20:06:00,
2013-09-26 16:11:00,74.0,60.6,30.01,NE,46,0.0,0.0,63,0.00,,,0.00,Wunderground v.1.15,2013-09-26 20:11:00,
2013-09-26 16:16:00,74.0,61.0,30.01,NE,46,0.0,1.0,64,0.00,,,0.00,Wunderground v.1.15,2013-09-26 20:16:00,
2013-09-26 16:22:00,74.1,60.2,30.01,NE,46,1.0,1.0,62,0.00,,,0.00,Wunderground v.1.15,2013-09-26 20:22:00,
2013-09-26 16:27:00,74.1,60.2,30.01,NE,46,0.0,1.0,62,0.00,,,0.00,Wunderground v.1.15,2013-09-26 20:27:00,
2013-09-26 16:32:00,74.1,59.8,30.01,NE,46,0.0,1.0,61,0.00,,,0.00,Wunderground v.1.15,2013-09-26 20:32:00,
2013-09-26 16:37:00,74.1,59.8,30.01,NE,46,0.0,1.0,61,0.00,,,0.00,Wunderground v.1.15,2013-09-26 20:37:00,
2013-09-26 16:42:00,74.1,60.2,30.01,NE,46,0.0,0.0,62,0.00,,,0.00,Wunderground v.1.15,2013-09-26 20:42:00,
2013-09-26 16:47:00,74.1,60.7,30.01,NE,46,0.0,2.0,63,0.00,,,0.00,Wunderground v.1.15,2013-09-26 20:47:00,
2013-09-26 16:52:00,74.2,60.8,30.01,NE,46,0.0,0.0,63,0.00,,,0.00,Wunderground v.1.15,2013-09-26 20:52:00,
2013-09-26 16:57:00,74.3,60.4,30.01,NE,46,0.0,0.0,62,0.00,,,0.00,Wunderground v.1.15,2013-09-26 20:57:00,
2013-09-26 17:02:00,74.3,60.0,30.02,NE,46,0.0,0.0,61,0.00,,,0.00,Wunderground v.1.15,2013-09-26 21:02:00,
2013-09-26 17:07:00,74.5,61.1,30.02,NE,46,0.0,0.0,63,0.00,,,0.00,Wunderground v.1.15,2013-09-26 21:07:00,
2013-09-26 17:12:00,74.6,60.7,30.02,NE,46,0.0,0.0,62,0.00,,,0.00,Wunderground v.1.15,2013-09-26 21:12:00,
2013-09-26 17:18:00,74.6,61.2,30.02,NE,46,0.0,0.0,63,0.00,,,0.00,Wunderground v.1.15,2013-09-26 21:18:00,
2013-09-26 17:23:00,74.6,60.3,30.02,NE,46,0.0,0.0,61,0.00,,,0.00,Wunderground v.1.15,2013-09-26 21:23:00,
2013-09-26 17:28:00,74.7,61.3,30.02,NE,46,0.0,0.0,63,0.00,,,0.00,Wunderground v.1.15,2013-09-26 21:28:00,
2013-09-26 17:33:00,74.7,61.3,30.02,NE,46,0.0,0.0,63,0.00,,,0.00,Wunderground v.1.15,2013-09-26 21:33:00,
2013-09-26 17:38:00,74.7,60.8,30.02,NE,46,0.0,0.0,62,0.00,,,0.00,Wunderground v.1.15,2013-09-26 21:38:00,
2013-09-26 17:43:00,74.7,60.4,30.02,NE,46,0.0,1.0,61,0.00,,,0.00,Wunderground v.1.15,2013-09-26 21:43:00,
2013-09-26 17:48:00,74.6,60.7,30.02,NE,46,0.0,1.0,62,0.00,,,0.00,Wunderground v.1.15,2013-09-26 21:48:00,
2013-09-26 17:53:00,74.6,61.2,30.02,NE,46,0.0,0.0,63,0.00,,,0.00,Wunderground v.1.15,2013-09-26 21:53:00,
2013-09-26 17:59:00,74.5,60.6,30.02,NE,46,0.0,0.0,62,0.00,,,0.00,Wunderground v.1.15,2013-09-26 21:59:00,
2013-09-26 18:04:00,74.5,60.2,30.02,NE,46,0.0,0.0,61,0.00,,,0.00,Wunderground v.1.15,2013-09-26 22:04:00,
2013-09-26 18:09:00,74.6,61.6,30.02,NE,46,0.0,1.0,64,0.00,,,0.00,Wunderground v.1.15,2013-09-26 22:09:00,
2013-09-26 18:14:00,74.5,60.6,30.02,NE,46,0.0,0.0,62,0.00,,,0.00,Wunderground v.1.15,2013-09-26 22:14:00,
2013-09-26 18:19:00,74.5,61.1,30.02,NE,46,0.0,0.0,63,0.00,,,0.00,Wunderground v.1.15,2013-09-26 22:19:00,
2013-09-26 18:24:00,74.3,60.9,30.02,NE,46,0.0,0.0,63,0.00,,,0.00,Wunderground v.1.15,2013-09-26 22:24:00,
2013-09-26 18:30:00,74.2,61.2,30.02,NE,46,0.0,0.0,64,0.00,,,0.00,Wunderground v.1.15,2013-09-26 22:30:00,
2013-09-26 18:35:00,74.0,61.0,30.02,NE,46,0.0,0.0,64,0.00,,,0.00,Wunderground v.1.15,2013-09-26 22:35:00,
2013-09-26 18:40:00,73.8,60.9,30.02,NE,46,0.0,0.0,64,0.00,,,0.00,Wunderground v.1.15,2013-09-26 22:40:00,
2013-09-26 18:45:00,73.6,61.1,30.02,NE,46,0.0,0.0,65,0.00,,,0.00,Wunderground v.1.15,2013-09-26 22:45:00,
2013-09-26 18:50:00,73.5,60.6,30.02,NE,46,0.0,0.0,64,0.00,,,0.00,Wunderground v.1.15,2013-09-26 22:50:00,
2013-09-26 18:56:00,73.2,61.6,30.03,NE,46,0.0,0.0,67,0.00,,,0.00,Wunderground v.1.15,2013-09-26 22:56:00,
2013-09-26 19:00:00,73.0,62.2,30.03,NE,46,0.0,0.0,69,0.00,,,0.00,Wunderground v.1.15,2013-09-26 23:00:00,
2013-09-26 19:06:00,72.6,62.3,30.03,NE,46,0.0,0.0,70,0.00,,,0.00,Wunderground v.1.15,2013-09-26 23:06:00,
2013-09-26 19:11:00,72.2,62.3,30.03,NE,46,0.0,0.0,71,0.00,,,0.00,Wunderground v.1.15,2013-09-26 23:11:00,
2013-09-26 19:16:00,71.7,62.2,30.03,NE,46,0.0,0.0,72,0.00,,,0.00,Wunderground v.1.15,2013-09-26 23:16:00,
2013-09-26 19:21:00,71.2,61.7,30.03,NE,46,0.0,0.0,72,0.00,,,0.00,Wunderground v.1.15,2013-09-26 23:21:00,
2013-09-26 19:26:00,70.7,61.6,30.03,NE,46,0.0,0.0,73,0.00,,,0.00,Wunderground v.1.15,2013-09-26 23:26:00,
2013-09-26 19:32:00,70.2,61.5,30.03,NE,46,0.0,0.0,74,0.00,,,0.00,Wunderground v.1.15,2013-09-26 23:32:00,
2013-09-26 19:37:00,69.6,60.9,30.03,NE,46,0.0,0.0,74,0.00,,,0.00,Wunderground v.1.15,2013-09-26 23:37:00,
2013-09-26 19:42:00,69.2,60.9,30.03,NE,46,0.0,0.0,75,0.00,,,0.00,Wunderground v.1.15,2013-09-26 23:42:00,
2013-09-26 19:47:00,68.7,60.5,30.03,NE,46,0.0,0.0,75,0.00,,,0.00,Wunderground v.1.15,2013-09-26 23:47:00,
2013-09-26 19:52:00,68.4,60.5,30.03,NE,46,0.0,0.0,76,0.00,,,0.00,Wunderground v.1.15,2013-09-26 23:52:00,
2013-09-26 19:57:00,68.0,60.5,30.03,NE,46,0.0,0.0,77,0.00,,,0.00,Wunderground v.1.15,2013-09-26 23:57:00,
2013-09-26 20:02:00,67.7,60.2,30.03,NE,46,0.0,0.0,77,0.00,,,0.00,Wunderground v.1.15,2013-09-27 00:02:00,
2013-09-26 20:10:00,67.2,60.1,30.04,NE,46,0.0,0.0,78,0.00,,,0.00,Wunderground v.1.15,2013-09-27 00:10:00,
2013-09-26 20:15:00,66.8,60.1,30.04,NE,46,0.0,0.0,79,0.00,,,0.00,Wunderground v.1.15,2013-09-27 00:15:00,
2013-09-26 20:20:00,66.5,60.1,30.04,NE,46,0.0,0.0,80,0.00,,,0.00,Wunderground v.1.15,2013-09-27 00:20:00,
2013-09-26 20:26:00,66.2,59.8,30.04,NE,46,0.0,0.0,80,0.00,,,0.00,Wunderground v.1.15,2013-09-27 00:26:00,
2013-09-26 20:31:00,65.9,59.9,30.04,NE,46,0.0,0.0,81,0.00,,,0.00,Wunderground v.1.15,2013-09-27 00:31:00,
2013-09-26 20:36:00,65.6,60.0,30.04,NE,46,0.0,0.0,82,0.00,,,0.00,Wunderground v.1.15,2013-09-27 00:36:00,
2013-09-26 20:41:00,65.4,59.8,30.04,NE,46,0.0,0.0,82,0.00,,,0.00,Wunderground v.1.15,2013-09-27 00:41:00,
2013-09-26 20:47:00,65.1,59.8,30.05,NE,46,0.0,0.0,83,0.00,,,0.00,Wunderground v.1.15,2013-09-27 00:47:00,
2013-09-26 20:52:00,64.8,59.5,30.05,NE,46,0.0,0.0,83,0.00,,,0.00,Wunderground v.1.15,2013-09-27 00:52:00,
2013-09-26 20:57:00,64.7,59.8,30.05,NE,46,0.0,0.0,84,0.00,,,0.00,Wunderground v.1.15,2013-09-27 00:57:00,
2013-09-26 21:02:00,64.5,59.6,30.05,NE,46,0.0,0.0,84,0.00,,,0.00,Wunderground v.1.15,2013-09-27 01:02:00,
2013-09-26 21:07:00,64.4,59.5,30.05,NE,46,0.0,0.0,84,0.00,,,0.00,Wunderground v.1.15,2013-09-27 01:07:00,
2013-09-26 21:12:00,64.3,59.4,30.05,NE,46,0.0,0.0,84,0.00,,,0.00,Wunderground v.1.15,2013-09-27 01:12:00,
2013-09-26 21:17:00,64.1,59.2,30.06,NE,46,0.0,0.0,84,0.00,,,0.00,Wunderground v.1.15,2013-09-27 01:17:00,
2013-09-26 21:22:00,64.0,59.4,30.06,NE,46,0.0,0.0,85,0.00,,,0.00,Wunderground v.1.15,2013-09-27 01:22:00,
2013-09-26 21:27:00,63.8,59.2,30.06,NE,46,0.0,0.0,85,0.00,,,0.00,Wunderground v.1.15,2013-09-27 01:27:00,
2013-09-26 21:32:00,63.6,59.0,30.06,NE,46,0.0,0.0,85,0.00,,,0.00,Wunderground v.1.15,2013-09-27 01:32:00,
2013-09-26 21:37:00,63.4,58.8,30.06,NE,46,0.0,0.0,85,0.00,,,0.00,Wunderground v.1.15,2013-09-27 01:37:00,
2013-09-26 21:42:00,63.1,58.8,30.06,NE,46,0.0,0.0,86,0.00,,,0.00,Wunderground v.1.15,2013-09-27 01:42:00,
2013-09-26 21:47:00,63.0,58.7,30.06,NE,46,0.0,0.0,86,0.00,,,0.00,Wunderground v.1.15,2013-09-27 01:47:00,
2013-09-26 21:53:00,62.9,58.6,30.06,NE,46,0.0,0.0,86,0.00,,,0.00,Wunderground v.1.15,2013-09-27 01:53:00,
2013-09-26 21:58:00,62.9,58.6,30.06,NE,46,0.0,0.0,86,0.00,,,0.00,Wunderground v.1.15,2013-09-27 01:58:00,
2013-09-26 22:03:00,62.8,58.9,30.06,NE,46,0.0,0.0,87,0.00,,,0.00,Wunderground v.1.15,2013-09-27 02:03:00,
2013-09-26 22:09:00,62.6,58.7,30.06,NE,46,0.0,0.0,87,0.00,,,0.00,Wunderground v.1.15,2013-09-27 02:09:00,
2013-09-26 22:14:00,62.5,58.6,30.06,NE,46,0.0,0.0,87,0.00,,,0.00,Wunderground v.1.15,2013-09-27 02:14:00,
2013-09-26 22:19:00,62.3,58.4,30.06,NE,46,0.0,0.0,87,0.00,,,0.00,Wunderground v.1.15,2013-09-27 02:19:00,
2013-09-26 22:24:00,62.2,58.6,30.06,NE,46,0.0,0.0,88,0.00,,,0.00,Wunderground v.1.15,2013-09-27 02:24:00,
2013-09-26 22:29:00,62.0,58.4,30.06,NE,46,0.0,0.0,88,0.00,,,0.00,Wunderground v.1.15,2013-09-27 02:29:00,
2013-09-26 22:34:00,61.8,58.2,30.06,NE,46,0.0,0.0,88,0.00,,,0.00,Wunderground v.1.15,2013-09-27 02:34:00,
2013-09-26 22:39:00,61.7,58.1,30.06,NE,46,0.0,0.0,88,0.00,,,0.00,Wunderground v.1.15,2013-09-27 02:39:00,
2013-09-26 22:44:00,61.5,57.9,30.06,NE,46,0.0,0.0,88,0.00,,,0.00,Wunderground v.1.15,2013-09-27 02:44:00,
2013-09-26 22:49:00,61.4,58.1,30.07,NE,46,0.0,0.0,89,0.00,,,0.00,Wunderground v.1.15,2013-09-27 02:49:00,
2013-09-26 22:54:00,61.2,57.9,30.06,NE,46,0.0,0.0,89,0.00,,,0.00,Wunderground v.1.15,2013-09-27 02:54:00,
2013-09-26 23:00:00,61.1,57.8,30.06,NE,46,0.0,0.0,89,0.00,,,0.00,Wunderground v.1.15,2013-09-27 03:00:00,
2013-09-26 23:05:00,61.0,58.0,30.06,NE,46,0.0,0.0,90,0.00,,,0.00,Wunderground v.1.15,2013-09-27 03:05:00,
2013-09-26 23:10:00,60.9,57.9,30.06,NE,46,0.0,0.0,90,0.00,,,0.00,Wunderground v.1.15,2013-09-27 03:10:00,
2013-09-26 23:15:00,60.8,57.8,30.06,NE,46,0.0,0.0,90,0.00,,,0.00,Wunderground v.1.15,2013-09-27 03:15:00,
2013-09-26 23:20:00,60.7,57.7,30.06,NE,46,0.0,0.0,90,0.00,,,0.00,Wunderground v.1.15,2013-09-27 03:20:00,
2013-09-26 23:25:00,60.5,57.6,30.06,NE,46,0.0,0.0,90,0.00,,,0.00,Wunderground v.1.15,2013-09-27 03:25:00,
2013-09-26 23:30:00,60.4,57.5,30.07,NE,46,0.0,0.0,90,0.00,,,0.00,Wunderground v.1.15,2013-09-27 03:30:00,
2013-09-26 23:35:00,60.2,57.3,30.07,NE,46,0.0,0.0,90,0.00,,,0.00,Wunderground v.1.15,2013-09-27 03:35:00,
2013-09-26 23:40:00,60.0,57.1,30.07,NE,46,0.0,0.0,90,0.00,,,0.00,Wunderground v.1.15,2013-09-27 03:40:00,
2013-09-26 23:45:00,59.9,57.3,30.07,NE,46,0.0,0.0,91,0.00,,,0.00,Wunderground v.1.15,2013-09-27 03:45:00,
2013-09-26 23:50:00,59.8,57.2,30.07,NE,46,0.0,0.0,91,0.00,,,0.00,Wunderground v.1.15,2013-09-27 03:50:00,
2013-09-26 23:55:00,59.7,57.1,30.07,NE,46,0.0,0.0,91,0.00,,,0.00,Wunderground v.1.15,2013-09-27 03:55:00,